Tracking 22779 objects as of 14-Apr-2021
HD Live streaming from Space Station
objects crossing your sky now

BEIDOU 3 IGSO-2

Track BEIDOU 3 IGSO-2 now!


NORAD ID: 44337
Int'l Code: 2019-035A
Perigee: 35,725.2 km
Apogee: 35,873.4 km
Inclination: 55.1 °
Period: 1,436.4 minutes
Semi major axis: 42170 km
RCS: Unknown
Launch date: June 24, 2019
Source: People's Republic of China (PRC)
Launch site: Xichang Space Center, China (XSC)
aabbcc
Your satellite tracking list
Your tracking list is empty




NASA's NSSDC Master Catalog

Two Line Element Set (TLE):
1 44337U 19035A   21103.90257622 -.00000082  00000-0  00000+0 0  9999
2 44337  55.0845 175.5747 0017563 193.9256 262.2879  1.00252012  6749
Source of the keplerian elements: AFSPC